Погода в Покровке

Россия / Новосибирская область     55°33′38″N   77°13′35″E
темп.,
°C
ветер,
м/с
пор.,
м/с
влажн.,
%
обл.,
%
осадки,
мм/ч
давл.,
гПа
погр.,
м
21 января, чт
чт2101:00−20вюв61196100 0.4 1020338
04:00−19юв51096100 0.3 1018294
07:00−18ююв4897100 0.4 1017230
10:00−19ююз4899100 0.1 1016159
13:00−18юз4994100 0.1 1016292
16:00−18юз4894100 0.0 1015271
19:00−20ююз3497100 0.0 101469
22:00−20ююз3598100 0.0 1013103
22 января, пт
пт2201:00−19юз3797100 0.0 1012260
04:00−22зюз3599100 0.1 101198
07:00−27з469877 0.1 101289
10:00−29з34985 0.0 101367
13:00−26зюз47962 0.0 1015211
16:00−25зюз469517 0.0 1017237
19:00−28зюз349719 0.0 101870
22:00−28зюз359777 0.0 102089
23 января, сб
сб2301:00−26юз359889 0.1 1022181
04:00−26юз3598100 0.1 1023167
07:00−26юз239896 0.1 102471
10:00−25зюз2498100 0.1 1026118
13:00−25з349697 0.1 1028264
16:00−26з3496100 0.0 1029251
19:00−30зсз359899 0.1 1031105
22:00−34зсз349670 0.0 103446
24 января, вс
вс2401:00−36зсз349755 0.0 103550
04:00−38зсз34970 0.0 103747
07:00−39зсз34974 0.0 103953
10:00−41зсз339619 0.0 104032
13:00−38зсз249523 0.0 1041142
16:00−37з249532 0.0 1042202
19:00−40з229629 0.0 104418
22:00−42з119923 0.0 104518
25 января, пн
пн2501:00−42юз1110020 0.0 104518
04:00−41ююв129815 0.0 104618
07:00−38ююв239648 0.0 104549
10:00−36юв3697100 0.0 1044141
13:00−32юв4697100 0.0 1042261
16:00−29юв5795100 0.0 1040279
19:00−29юв5898100 0.6 1038250
22:00−27юв5899100 1.0 1036259